owner,sensor,date,latitude,longitude,vertical_datum,sea_water_practical_salinity,qcFlag 
DISL,ioos:station:DISL:MHPA:1,2010-12-02T00:00:00Z,30.6671,-87.9365,3.448,3.3,1111122 
DISL,ioos:station:DISL:MHPA:1,2010-12-02T00:30:00Z,30.6671,-87.9365,3.489,3.28,1111122 
DISL,ioos:station:DISL:MHPA:1,2010-12-02T01:00:00Z,30.6671,-87.9365,3.547,3.25,1111122 
DISL,ioos:station:DISL:MHPA:1,2010-12-02T01:30:00Z,30.6671,-87.9365,3.558,3.25,1111122 
DISL,ioos:station:DISL:MHPA:1,2010-12-02T02:00:00Z,30.6671,-87.9365,3.527,3.2,1111122 
DISL,ioos:station:DISL:MHPA:1,2010-12-02T02:30:00Z,30.6671,-87.9365,3.526,3.13,1111122 
DISL,ioos:station:DISL:MHPA:1,2010-12-02T03:00:00Z,30.6671,-87.9365,3.493,3.29,1111122 
DISL,ioos:station:DISL:MHPA:1,2010-12-02T03:30:00Z,30.6671,-87.9365,3.428,3.32,1111122 
DISL,ioos:station:DISL:MHPA:1,2010-12-02T04:00:00Z,30.6671,-87.9365,3.374,3.23,1111122 
DISL,ioos:station:DISL:MHPA:1,2010-12-02T04:30:00Z,30.6671,-87.9365,3.318,3.29,1111122 
DISL,ioos:station:DISL:MHPA:1,2010-12-02T05:00:00Z,30.6671,-87.9365,3.231,3.27,1111122 
DISL,ioos:station:DISL:MHPA:1,2010-12-02T05:30:00Z,30.6671,-87.9365,3.152,3.21,1111122 
DISL,ioos:station:DISL:MHPA:1,2010-12-02T06:00:00Z,30.6671,-87.9365,3.05,3.33,1111122 
DISL,ioos:station:DISL:MHPA:1,2010-12-02T06:30:00Z,30.6671,-87.9365,2.937,3.34,1111122 
DISL,ioos:station:DISL:MHPA:1,2010-12-02T07:00:00Z,30.6671,-87.9365,2.845,3.34,1111122 
DISL,ioos:station:DISL:MHPA:1,2010-12-02T07:30:00Z,30.6671,-87.9365,2.731,3.33,1111122 
DISL,ioos:station:DISL:MHPA:1,2010-12-02T08:00:00Z,30.6671,-87.9365,2.612,3.34,1111122 
DISL,ioos:station:DISL:MHPA:1,2010-12-02T08:30:00Z,30.6671,-87.9365,2.494,3.34,1111122 
DISL,ioos:station:DISL:MHPA:1,2010-12-02T09:00:00Z,30.6671,-87.9365,2.381,3.29,1111122 
DISL,ioos:station:DISL:MHPA:1,2010-12-02T09:30:00Z,30.6671,-87.9365,2.285,3.23,1111122 
DISL,ioos:station:DISL:MHPA:1,2010-12-02T10:00:00Z,30.6671,-87.9365,2.195,3.23,1111122 
DISL,ioos:station:DISL:MHPA:1,2010-12-02T10:30:00Z,30.6671,-87.9365,2.117,3.12,1111122 
DISL,ioos:station:DISL:MHPA:1,2010-12-02T11:00:00Z,30.6671,-87.9365,2.069,3.24,1111122 
DISL,ioos:station:DISL:MHPA:1,2010-12-02T11:30:00Z,30.6671,-87.9365,2.022,3.26,1111122 
DISL,ioos:station:DISL:MHPA:1,2010-12-02T12:00:00Z,30.6671,-87.9365,1.979,3.3,1111122 
DISL,ioos:station:DISL:MHPA:1,2010-12-02T12:30:00Z,30.6671,-87.9365,1.931,3.28,1111122 
DISL,ioos:station:DISL:MHPA:1,2010-12-02T13:00:00Z,30.6671,-87.9365,1.888,3.26,1111122 
DISL,ioos:station:DISL:MHPA:1,2010-12-02T13:30:00Z,30.6671,-87.9365,1.847,3.32,1111122 
DISL,ioos:station:DISL:MHPA:1,2010-12-02T14:00:00Z,30.6671,-87.9365,1.811,3.19,1111122 
DISL,ioos:station:DISL:MHPA:1,2010-12-02T14:30:00Z,30.6671,-87.9365,1.791,3.31,1111122 
DISL,ioos:station:DISL:MHPA:1,2010-12-02T15:00:00Z,30.6671,-87.9365,1.801,3.29,1111122 
DISL,ioos:station:DISL:MHPA:1,2010-12-02T15:30:00Z,30.6671,-87.9365,1.839,3.19,1111122 
DISL,ioos:station:DISL:MHPA:1,2010-12-02T16:00:00Z,30.6671,-87.9365,1.945,3.25,1111122 
DISL,ioos:station:DISL:MHPA:1,2010-12-02T16:30:00Z,30.6671,-87.9365,2.11,2.91,1111122 
DISL,ioos:station:DISL:MHPA:1,2010-12-02T17:00:00Z,30.6671,-87.9365,2.281,3.19,1111122 
DISL,ioos:station:DISL:MHPA:1,2010-12-02T17:30:00Z,30.6671,-87.9365,2.456,2.69,1111122 
DISL,ioos:station:DISL:MHPA:1,2010-12-02T18:00:00Z,30.6671,-87.9365,2.595,2.57,1111122 
DISL,ioos:station:DISL:MHPA:1,2010-12-02T18:30:00Z,30.6671,-87.9365,2.698,2.57,1111122 
DISL,ioos:station:DISL:MHPA:1,2010-12-02T19:00:00Z,30.6671,-87.9365,2.777,2.54,1111122 
DISL,ioos:station:DISL:MHPA:1,2010-12-02T19:30:00Z,30.6671,-87.9365,2.873,2.62,1111122 
DISL,ioos:station:DISL:MHPA:1,2010-12-02T20:00:00Z,30.6671,-87.9365,2.95,2.59,1111122 
DISL,ioos:station:DISL:MHPA:1,2010-12-02T20:30:00Z,30.6671,-87.9365,3.038,2.65,1111122 
DISL,ioos:station:DISL:MHPA:1,2010-12-02T21:00:00Z,30.6671,-87.9365,3.158,2.72,1111122 
DISL,ioos:station:DISL:MHPA:1,2010-12-02T21:30:00Z,30.6671,-87.9365,3.286,2.68,1111122 
DISL,ioos:station:DISL:MHPA:1,2010-12-02T22:00:00Z,30.6671,-87.9365,3.422,2.6,1111122 
DISL,ioos:station:DISL:MHPA:1,2010-12-02T22:30:00Z,30.6671,-87.9365,3.538,2.46,1111122 
DISL,ioos:station:DISL:MHPA:1,2010-12-02T23:00:00Z,30.6671,-87.9365,3.669,2.53,1111122 
DISL,ioos:station:DISL:MHPA:1,2010-12-02T23:30:00Z,30.6671,-87.9365,3.76,2.52,1111122 
DISL,ioos:station:DISL:MHPA:1,2010-12-03T00:00:00Z,30.6671,-87.9365,3.839,2.45,1111122 
DISL,ioos:station:DISL:MHPA:1,2010-12-03T00:30:00Z,30.6671,-87.9365,3.961,2.38,1111122 
DISL,ioos:station:DISL:MHPA:1,2010-12-03T01:00:00Z,30.6671,-87.9365,3.996,2.42,1111122 
DISL,ioos:station:DISL:MHPA:1,2010-12-03T01:30:00Z,30.6671,-87.9365,4.018,2.48,1111122 
DISL,ioos:station:DISL:MHPA:1,2010-12-03T02:00:00Z,30.6671,-87.9365,4.032,2.57,1111122 
DISL,ioos:station:DISL:MHPA:1,2010-12-03T02:30:00Z,30.6671,-87.9365,4.04,2.54,1111122 
DISL,ioos:station:DISL:MHPA:1,2010-12-03T03:00:00Z,30.6671,-87.9365,4.004,2.43,1111122 
DISL,ioos:station:DISL:MHPA:1,2010-12-03T03:30:00Z,30.6671,-87.9365,3.93,2.41,1111122 
DISL,ioos:station:DISL:MHPA:1,2010-12-03T04:00:00Z,30.6671,-87.9365,3.87,2.35,1111122 
DISL,ioos:station:DISL:MHPA:1,2010-12-03T04:30:00Z,30.6671,-87.9365,3.772,2.39,1111122 
DISL,ioos:station:DISL:MHPA:1,2010-12-03T05:00:00Z,30.6671,-87.9365,3.696,2.42,1111122 
DISL,ioos:station:DISL:MHPA:1,2010-12-03T05:30:00Z,30.6671,-87.9365,3.616,2.49,1111122 
DISL,ioos:station:DISL:MHPA:1,2010-12-03T06:00:00Z,30.6671,-87.9365,3.495,2.43,1111122 
DISL,ioos:station:DISL:MHPA:1,2010-12-03T06:30:00Z,30.6671,-87.9365,3.346,2.02,1111122 
DISL,ioos:station:DISL:MHPA:1,2010-12-03T07:00:00Z,30.6671,-87.9365,3.228,2.41,1111122 
DISL,ioos:station:DISL:MHPA:1,2010-12-03T07:30:00Z,30.6671,-87.9365,3.129,2.77,1111122 
DISL,ioos:station:DISL:MHPA:1,2010-12-03T08:00:00Z,30.6671,-87.9365,2.986,2.67,1111122 
DISL,ioos:station:DISL:MHPA:1,2010-12-03T08:30:00Z,30.6671,-87.9365,2.849,2.47,1111122 
DISL,ioos:station:DISL:MHPA:1,2010-12-03T09:00:00Z,30.6671,-87.9365,2.721,2.46,1111122 
DISL,ioos:station:DISL:MHPA:1,2010-12-03T09:30:00Z,30.6671,-87.9365,2.612,2.44,1111122 
DISL,ioos:station:DISL:MHPA:1,2010-12-03T10:00:00Z,30.6671,-87.9365,2.498,2.42,1111122 
DISL,ioos:station:DISL:MHPA:1,2010-12-03T10:30:00Z,30.6671,-87.9365,2.399,2.4,1111122 
DISL,ioos:station:DISL:MHPA:1,2010-12-03T11:00:00Z,30.6671,-87.9365,2.319,2.45,1111122 
DISL,ioos:station:DISL:MHPA:1,2010-12-03T11:30:00Z,30.6671,-87.9365,2.239,2.51,1111122 
DISL,ioos:station:DISL:MHPA:1,2010-12-03T12:00:00Z,30.6671,-87.9365,2.162,2.48,1111122 
DISL,ioos:station:DISL:MHPA:1,2010-12-03T12:30:00Z,30.6671,-87.9365,2.095,2.45,1111122 
DISL,ioos:station:DISL:MHPA:1,2010-12-03T13:00:00Z,30.6671,-87.9365,2.028,2.22,1111122 
DISL,ioos:station:DISL:MHPA:1,2010-12-03T13:30:00Z,30.6671,-87.9365,1.972,2.4,1111122 
DISL,ioos:station:DISL:MHPA:1,2010-12-03T14:00:00Z,30.6671,-87.9365,1.919,2.29,1111122 
DISL,ioos:station:DISL:MHPA:1,2010-12-03T14:30:00Z,30.6671,-87.9365,1.869,1.96,1111122 
DISL,ioos:station:DISL:MHPA:1,2010-12-03T15:00:00Z,30.6671,-87.9365,1.828,2.11,1111122 
DISL,ioos:station:DISL:MHPA:1,2010-12-03T15:30:00Z,30.6671,-87.9365,1.796,2.32,1111122 
DISL,ioos:station:DISL:MHPA:1,2010-12-03T16:00:00Z,30.6671,-87.9365,1.782,2.14,1111122 
DISL,ioos:station:DISL:MHPA:1,2010-12-03T16:30:00Z,30.6671,-87.9365,1.82,2.19,1111122 
DISL,ioos:station:DISL:MHPA:1,2010-12-03T17:00:00Z,30.6671,-87.9365,1.924,2.03,1111122 
DISL,ioos:station:DISL:MHPA:1,2010-12-03T17:30:00Z,30.6671,-87.9365,2.07,1.96,1111122 
DISL,ioos:station:DISL:MHPA:1,2010-12-03T18:00:00Z,30.6671,-87.9365,2.275,1.38,1111122 
DISL,ioos:station:DISL:MHPA:1,2010-12-03T18:30:00Z,30.6671,-87.9365,2.48,1.43,1111122 
DISL,ioos:station:DISL:MHPA:1,2010-12-03T19:00:00Z,30.6671,-87.9365,2.651,1.44,1111122 
DISL,ioos:station:DISL:MHPA:1,2010-12-03T19:30:00Z,30.6671,-87.9365,2.85,1.46,1111122 
DISL,ioos:station:DISL:MHPA:1,2010-12-03T20:00:00Z,30.6671,-87.9365,3.019,1.41,1111122 
DISL,ioos:station:DISL:MHPA:1,2010-12-03T20:30:00Z,30.6671,-87.9365,3.153,1.41,1111122 
DISL,ioos:station:DISL:MHPA:1,2010-12-03T21:00:00Z,30.6671,-87.9365,3.284,1.48,1111122 
DISL,ioos:station:DISL:MHPA:1,2010-12-03T21:30:00Z,30.6671,-87.9365,3.415,1.45,1111122 
DISL,ioos:station:DISL:MHPA:1,2010-12-03T22:00:00Z,30.6671,-87.9365,3.507,1.49,1111122 
DISL,ioos:station:DISL:MHPA:1,2010-12-03T22:30:00Z,30.6671,-87.9365,3.644,1.51,1111122 
DISL,ioos:station:DISL:MHPA:1,2010-12-03T23:00:00Z,30.6671,-87.9365,3.762,1.6,1111122 
DISL,ioos:station:DISL:MHPA:1,2010-12-03T23:30:00Z,30.6671,-87.9365,3.861,1.61,1111122 
DISL,ioos:station:DISL:MHPA:1,2010-12-04T00:00:00Z,30.6671,-87.9365,3.961,1.58,1111122 
DISL,ioos:station:DISL:MHPA:1,2010-12-04T00:30:00Z,30.6671,-87.9365,4.044,1.54,1111122 
DISL,ioos:station:DISL:MHPA:1,2010-12-04T01:00:00Z,30.6671,-87.9365,4.152,1.55,1111122 
DISL,ioos:station:DISL:MHPA:1,2010-12-04T01:30:00Z,30.6671,-87.9365,4.229,1.52,1111122 
DISL,ioos:station:DISL:MHPA:1,2010-12-04T02:00:00Z,30.6671,-87.9365,4.271,1.52,1111122 
DISL,ioos:station:DISL:MHPA:1,2010-12-04T02:30:00Z,30.6671,-87.9365,4.325,1.51,1111122 
DISL,ioos:station:DISL:MHPA:1,2010-12-04T03:00:00Z,30.6671,-87.9365,4.329,1.51,1111122 
DISL,ioos:station:DISL:MHPA:1,2010-12-04T03:30:00Z,30.6671,-87.9365,4.31,1.5,1111122 
DISL,ioos:station:DISL:MHPA:1,2010-12-04T04:00:00Z,30.6671,-87.9365,4.316,1.52,1111122 
DISL,ioos:station:DISL:MHPA:1,2010-12-04T04:30:00Z,30.6671,-87.9365,4.255,1.43,1111122 
DISL,ioos:station:DISL:MHPA:1,2010-12-04T05:00:00Z,30.6671,-87.9365,4.204,1.38,1111122 
DISL,ioos:station:DISL:MHPA:1,2010-12-04T05:30:00Z,30.6671,-87.9365,4.127,1.29,1111122 
DISL,ioos:station:DISL:MHPA:1,2010-12-04T06:00:00Z,30.6671,-87.9365,4.01,1.26,1111122 
DISL,ioos:station:DISL:MHPA:1,2010-12-04T06:30:00Z,30.6671,-87.9365,3.883,1.24,1111122 
DISL,ioos:station:DISL:MHPA:1,2010-12-04T07:00:00Z,30.6671,-87.9365,3.773,1.21,1111122 
DISL,ioos:station:DISL:MHPA:1,2010-12-04T07:30:00Z,30.6671,-87.9365,3.647,1.15,1111122 
DISL,ioos:station:DISL:MHPA:1,2010-12-04T08:00:00Z,30.6671,-87.9365,3.517,1.12,1111122 
DISL,ioos:station:DISL:MHPA:1,2010-12-04T08:30:00Z,30.6671,-87.9365,3.397,1.08,1111122 
DISL,ioos:station:DISL:MHPA:1,2010-12-04T09:00:00Z,30.6671,-87.9365,3.268,0.73,1111122 
DISL,ioos:station:DISL:MHPA:1,2010-12-04T09:30:00Z,30.6671,-87.9365,3.132,0.59,1111122 
DISL,ioos:station:DISL:MHPA:1,2010-12-04T10:00:00Z,30.6671,-87.9365,3.002,0.51,1111122 
DISL,ioos:station:DISL:MHPA:1,2010-12-04T10:30:00Z,30.6671,-87.9365,2.872,0.52,1111122 
DISL,ioos:station:DISL:MHPA:1,2010-12-04T11:00:00Z,30.6671,-87.9365,2.757,0.7,1111122 
DISL,ioos:station:DISL:MHPA:1,2010-12-04T11:30:00Z,30.6671,-87.9365,2.644,0.73,1111122 
DISL,ioos:station:DISL:MHPA:1,2010-12-04T12:00:00Z,30.6671,-87.9365,2.565,0.68,1111122 
DISL,ioos:station:DISL:MHPA:1,2010-12-04T12:30:00Z,30.6671,-87.9365,2.488,0.77,1111122 
DISL,ioos:station:DISL:MHPA:1,2010-12-04T13:00:00Z,30.6671,-87.9365,2.377,0.72,1111122 
DISL,ioos:station:DISL:MHPA:1,2010-12-04T13:30:00Z,30.6671,-87.9365,2.284,0.79,1111122 
DISL,ioos:station:DISL:MHPA:1,2010-12-04T14:00:00Z,30.6671,-87.9365,2.213,0.82,1111122 
DISL,ioos:station:DISL:MHPA:1,2010-12-04T14:30:00Z,30.6671,-87.9365,2.15,0.86,1111122 
DISL,ioos:station:DISL:MHPA:1,2010-12-04T15:00:00Z,30.6671,-87.9365,2.099,0.75,1111122 
DISL,ioos:station:DISL:MHPA:1,2010-12-04T15:30:00Z,30.6671,-87.9365,2.065,0.63,1111122 
DISL,ioos:station:DISL:MHPA:1,2010-12-04T16:00:00Z,30.6671,-87.9365,2.039,0.54,1111122 
DISL,ioos:station:DISL:MHPA:1,2010-12-04T16:30:00Z,30.6671,-87.9365,2.059,0.55,1111122 
DISL,ioos:station:DISL:MHPA:1,2010-12-04T17:00:00Z,30.6671,-87.9365,2.1,0.55,1111122 
DISL,ioos:station:DISL:MHPA:1,2010-12-04T17:30:00Z,30.6671,-87.9365,2.204,0.56,1111122 
DISL,ioos:station:DISL:MHPA:1,2010-12-04T18:00:00Z,30.6671,-87.9365,2.378,0.57,1111122 
DISL,ioos:station:DISL:MHPA:1,2010-12-04T18:30:00Z,30.6671,-87.9365,2.611,0.56,1111122 
DISL,ioos:station:DISL:MHPA:1,2010-12-04T19:00:00Z,30.6671,-87.9365,2.837,0.57,1111122 
DISL,ioos:station:DISL:MHPA:1,2010-12-04T19:30:00Z,30.6671,-87.9365,3.017,0.58,1111122 
DISL,ioos:station:DISL:MHPA:1,2010-12-04T20:00:00Z,30.6671,-87.9365,3.147,0.57,1111122 
DISL,ioos:station:DISL:MHPA:1,2010-12-04T20:30:00Z,30.6671,-87.9365,3.277,0.62,1111122 
DISL,ioos:station:DISL:MHPA:1,2010-12-04T21:00:00Z,30.6671,-87.9365,3.342,0.67,1111122 
DISL,ioos:station:DISL:MHPA:1,2010-12-04T21:30:00Z,30.6671,-87.9365,3.472,0.69,1111122 
DISL,ioos:station:DISL:MHPA:1,2010-12-04T22:00:00Z,30.6671,-87.9365,3.644,0.73,1111122 
DISL,ioos:station:DISL:MHPA:1,2010-12-04T22:30:00Z,30.6671,-87.9365,3.702,0.61,1111122 
DISL,ioos:station:DISL:MHPA:1,2010-12-04T23:00:00Z,30.6671,-87.9365,3.789,0.72,1111122 
DISL,ioos:station:DISL:MHPA:1,2010-12-04T23:30:00Z,30.6671,-87.9365,3.901,0.73,1111122 
DISL,ioos:station:DISL:MHPA:1,2010-12-05T00:00:00Z,30.6671,-87.9365,4.004,0.72,1111122 
DISL,ioos:station:DISL:MHPA:1,2010-12-05T00:30:00Z,30.6671,-87.9365,4.109,0.76,1111122 
DISL,ioos:station:DISL:MHPA:1,2010-12-05T01:00:00Z,30.6671,-87.9365,4.218,0.76,1111122 
DISL,ioos:station:DISL:MHPA:1,2010-12-05T01:30:00Z,30.6671,-87.9365,4.266,0.77,1111122 
DISL,ioos:station:DISL:MHPA:1,2010-12-05T02:00:00Z,30.6671,-87.9365,4.379,0.77,1111122 
DISL,ioos:station:DISL:MHPA:1,2010-12-05T02:30:00Z,30.6671,-87.9365,4.523,0.79,1111122 
DISL,ioos:station:DISL:MHPA:1,2010-12-05T03:00:00Z,30.6671,-87.9365,4.581,0.79,1111122 
DISL,ioos:station:DISL:MHPA:1,2010-12-05T03:30:00Z,30.6671,-87.9365,4.585,0.81,1111122 
DISL,ioos:station:DISL:MHPA:1,2010-12-05T04:00:00Z,30.6671,-87.9365,4.62,0.8,1111122 
DISL,ioos:station:DISL:MHPA:1,2010-12-05T04:30:00Z,30.6671,-87.9365,4.576,0.84,1111122 
DISL,ioos:station:DISL:MHPA:1,2010-12-05T05:00:00Z,30.6671,-87.9365,4.503,0.85,1111122 
DISL,ioos:station:DISL:MHPA:1,2010-12-05T05:30:00Z,30.6671,-87.9365,4.373,0.83,1111122 
DISL,ioos:station:DISL:MHPA:1,2010-12-05T06:00:00Z,30.6671,-87.9365,4.215,0.82,1111122 
DISL,ioos:station:DISL:MHPA:1,2010-12-05T06:30:00Z,30.6671,-87.9365,4.077,0.8,1111122 
DISL,ioos:station:DISL:MHPA:1,2010-12-05T07:00:00Z,30.6671,-87.9365,3.882,0.8,1111122 
DISL,ioos:station:DISL:MHPA:1,2010-12-05T07:30:00Z,30.6671,-87.9365,3.707,0.78,1111122 
DISL,ioos:station:DISL:MHPA:1,2010-12-05T08:00:00Z,30.6671,-87.9365,3.465,0.71,1111122 
DISL,ioos:station:DISL:MHPA:1,2010-12-05T08:30:00Z,30.6671,-87.9365,3.244,0.54,1111122 
DISL,ioos:station:DISL:MHPA:1,2010-12-05T09:00:00Z,30.6671,-87.9365,3.019,0.48,1111122 
DISL,ioos:station:DISL:MHPA:1,2010-12-05T09:30:00Z,30.6671,-87.9365,2.819,0.41,1111122 
DISL,ioos:station:DISL:MHPA:1,2010-12-05T10:00:00Z,30.6671,-87.9365,2.622,0.45,1111122 
DISL,ioos:station:DISL:MHPA:1,2010-12-05T10:30:00Z,30.6671,-87.9365,2.448,0.57,1111122 
DISL,ioos:station:DISL:MHPA:1,2010-12-05T11:00:00Z,30.6671,-87.9365,2.304,0.59,1111122 
DISL,ioos:station:DISL:MHPA:1,2010-12-05T11:30:00Z,30.6671,-87.9365,2.18,0.48,1111122 
DISL,ioos:station:DISL:MHPA:1,2010-12-05T12:00:00Z,30.6671,-87.9365,2.085,0.55,1111122 
DISL,ioos:station:DISL:MHPA:1,2010-12-05T12:30:00Z,30.6671,-87.9365,1.983,0.61,1111122 
DISL,ioos:station:DISL:MHPA:1,2010-12-05T13:00:00Z,30.6671,-87.9365,1.895,0.61,1111122 
DISL,ioos:station:DISL:MHPA:1,2010-12-05T13:30:00Z,30.6671,-87.9365,1.811,0.63,1111122 
DISL,ioos:station:DISL:MHPA:1,2010-12-05T14:00:00Z,30.6671,-87.9365,1.734,0.65,1111122 
DISL,ioos:station:DISL:MHPA:1,2010-12-05T14:30:00Z,30.6671,-87.9365,1.666,0.64,1111122 
DISL,ioos:station:DISL:MHPA:1,2010-12-05T15:00:00Z,30.6671,-87.9365,1.6,0.67,1111122 
DISL,ioos:station:DISL:MHPA:1,2010-12-05T15:30:00Z,30.6671,-87.9365,1.551,0.77,1111122 
DISL,ioos:station:DISL:MHPA:1,2010-12-05T16:00:00Z,30.6671,-87.9365,1.51,0.78,1111122 
DISL,ioos:station:DISL:MHPA:1,2010-12-05T16:30:00Z,30.6671,-87.9365,1.477,0.83,1111122 
DISL,ioos:station:DISL:MHPA:1,2010-12-05T17:00:00Z,30.6671,-87.9365,1.446,0.85,1111122 
DISL,ioos:station:DISL:MHPA:1,2010-12-05T17:30:00Z,30.6671,-87.9365,1.421,0.86,1111122 
DISL,ioos:station:DISL:MHPA:1,2010-12-05T18:00:00Z,30.6671,-87.9365,1.402,0.9,1111122 
DISL,ioos:station:DISL:MHPA:1,2010-12-05T18:30:00Z,30.6671,-87.9365,1.384,0.96,1111122 
DISL,ioos:station:DISL:MHPA:1,2010-12-05T19:00:00Z,30.6671,-87.9365,1.366,1.0,1111122 
DISL,ioos:station:DISL:MHPA:1,2010-12-05T19:30:00Z,30.6671,-87.9365,1.354,0.99,1111122 
DISL,ioos:station:DISL:MHPA:1,2010-12-05T20:00:00Z,30.6671,-87.9365,1.34,1.0,1111122 
DISL,ioos:station:DISL:MHPA:1,2010-12-05T20:30:00Z,30.6671,-87.9365,1.333,1.04,1111122 
DISL,ioos:station:DISL:MHPA:1,2010-12-05T21:00:00Z,30.6671,-87.9365,1.33,1.06,1111122 
DISL,ioos:station:DISL:MHPA:1,2010-12-05T21:30:00Z,30.6671,-87.9365,1.338,1.05,1111122 
DISL,ioos:station:DISL:MHPA:1,2010-12-05T22:00:00Z,30.6671,-87.9365,1.384,1.04,1111122 
DISL,ioos:station:DISL:MHPA:1,2010-12-05T22:30:00Z,30.6671,-87.9365,1.486,1.12,1111122 
DISL,ioos:station:DISL:MHPA:1,2010-12-05T23:00:00Z,30.6671,-87.9365,1.657,1.17,1111122 
DISL,ioos:station:DISL:MHPA:1,2010-12-05T23:30:00Z,30.6671,-87.9365,1.899,1.13,1111122 
DISL,ioos:station:DISL:MHPA:1,2010-12-06T00:00:00Z,30.6671,-87.9365,2.166,1.15,1111122 
DISL,ioos:station:DISL:MHPA:1,2010-12-06T00:30:00Z,30.6671,-87.9365,2.354,1.19,1111122 
DISL,ioos:station:DISL:MHPA:1,2010-12-06T01:00:00Z,30.6671,-87.9365,2.515,1.23,1111122 
DISL,ioos:station:DISL:MHPA:1,2010-12-06T01:30:00Z,30.6671,-87.9365,2.633,1.19,1111122 
DISL,ioos:station:DISL:MHPA:1,2010-12-06T02:00:00Z,30.6671,-87.9365,2.704,1.21,1111122 
DISL,ioos:station:DISL:MHPA:1,2010-12-06T02:30:00Z,30.6671,-87.9365,2.796,1.09,1111122 
DISL,ioos:station:DISL:MHPA:1,2010-12-06T03:00:00Z,30.6671,-87.9365,2.909,1.14,1111122 
DISL,ioos:station:DISL:MHPA:1,2010-12-06T03:30:00Z,30.6671,-87.9365,2.977,1.16,1111122 
DISL,ioos:station:DISL:MHPA:1,2010-12-06T04:00:00Z,30.6671,-87.9365,2.936,1.17,1111122 
DISL,ioos:station:DISL:MHPA:1,2010-12-06T04:30:00Z,30.6671,-87.9365,3.018,1.13,1111122 
DISL,ioos:station:DISL:MHPA:1,2010-12-06T05:00:00Z,30.6671,-87.9365,3.106,1.06,1111122 
DISL,ioos:station:DISL:MHPA:1,2010-12-06T05:30:00Z,30.6671,-87.9365,3.151,1.13,1111122 
DISL,ioos:station:DISL:MHPA:1,2010-12-06T06:00:00Z,30.6671,-87.9365,3.087,1.12,1111122 
DISL,ioos:station:DISL:MHPA:1,2010-12-06T06:30:00Z,30.6671,-87.9365,3.04,1.09,1111122 
DISL,ioos:station:DISL:MHPA:1,2010-12-06T07:00:00Z,30.6671,-87.9365,2.983,1.12,1111122 
DISL,ioos:station:DISL:MHPA:1,2010-12-06T07:30:00Z,30.6671,-87.9365,2.935,1.05,1111122 
DISL,ioos:station:DISL:MHPA:1,2010-12-06T08:00:00Z,30.6671,-87.9365,2.846,0.98,1111122 
DISL,ioos:station:DISL:MHPA:1,2010-12-06T08:30:00Z,30.6671,-87.9365,2.707,1.05,1111122 
DISL,ioos:station:DISL:MHPA:1,2010-12-06T09:00:00Z,30.6671,-87.9365,2.591,0.98,1111122 
DISL,ioos:station:DISL:MHPA:1,2010-12-06T09:30:00Z,30.6671,-87.9365,2.483,0.92,1111122 
DISL,ioos:station:DISL:MHPA:1,2010-12-06T10:00:00Z,30.6671,-87.9365,2.368,0.75,1111122 
DISL,ioos:station:DISL:MHPA:1,2010-12-06T10:30:00Z,30.6671,-87.9365,2.256,0.74,1111122 
DISL,ioos:station:DISL:MHPA:1,2010-12-06T11:00:00Z,30.6671,-87.9365,2.155,0.96,1111122 
DISL,ioos:station:DISL:MHPA:1,2010-12-06T11:30:00Z,30.6671,-87.9365,2.07,0.9,1111122 
DISL,ioos:station:DISL:MHPA:1,2010-12-06T12:00:00Z,30.6671,-87.9365,1.969,0.86,1111122 
DISL,ioos:station:DISL:MHPA:1,2010-12-06T12:30:00Z,30.6671,-87.9365,1.889,0.83,1111122 
DISL,ioos:station:DISL:MHPA:1,2010-12-06T13:00:00Z,30.6671,-87.9365,1.818,0.78,1111122 
DISL,ioos:station:DISL:MHPA:1,2010-12-06T13:30:00Z,30.6671,-87.9365,1.748,0.78,1111122 
DISL,ioos:station:DISL:MHPA:1,2010-12-06T14:00:00Z,30.6671,-87.9365,1.682,0.85,1111122 
DISL,ioos:station:DISL:MHPA:1,2010-12-06T14:30:00Z,30.6671,-87.9365,1.624,0.88,1111122 
DISL,ioos:station:DISL:MHPA:1,2010-12-06T15:00:00Z,30.6671,-87.9365,1.576,0.77,1111122 
DISL,ioos:station:DISL:MHPA:1,2010-12-06T15:30:00Z,30.6671,-87.9365,1.532,0.56,1111122 
DISL,ioos:station:DISL:MHPA:1,2010-12-06T16:00:00Z,30.6671,-87.9365,1.496,0.55,1111122 
DISL,ioos:station:DISL:MHPA:1,2010-12-06T16:30:00Z,30.6671,-87.9365,1.464,0.59,1111122 
DISL,ioos:station:DISL:MHPA:1,2010-12-06T17:00:00Z,30.6671,-87.9365,1.441,0.64,1111122 
DISL,ioos:station:DISL:MHPA:1,2010-12-06T17:30:00Z,30.6671,-87.9365,1.417,0.68,1111122 
DISL,ioos:station:DISL:MHPA:1,2010-12-06T18:00:00Z,30.6671,-87.9365,1.399,0.74,1111122 
DISL,ioos:station:DISL:MHPA:1,2010-12-06T18:30:00Z,30.6671,-87.9365,1.382,0.77,1111122 
DISL,ioos:station:DISL:MHPA:1,2010-12-06T19:00:00Z,30.6671,-87.9365,1.369,0.79,1111122 
DISL,ioos:station:DISL:MHPA:1,2010-12-06T19:30:00Z,30.6671,-87.9365,1.353,0.82,1111122 
DISL,ioos:station:DISL:MHPA:1,2010-12-06T20:00:00Z,30.6671,-87.9365,1.344,0.82,1111122 
DISL,ioos:station:DISL:MHPA:1,2010-12-06T20:30:00Z,30.6671,-87.9365,1.344,0.81,1111122 
DISL,ioos:station:DISL:MHPA:1,2010-12-06T21:00:00Z,30.6671,-87.9365,1.344,0.8,1111122 
DISL,ioos:station:DISL:MHPA:1,2010-12-06T21:30:00Z,30.6671,-87.9365,1.368,0.81,1111122 
DISL,ioos:station:DISL:MHPA:1,2010-12-06T22:00:00Z,30.6671,-87.9365,1.45,0.84,1111122 
DISL,ioos:station:DISL:MHPA:1,2010-12-06T22:30:00Z,30.6671,-87.9365,1.562,0.86,1111122 
DISL,ioos:station:DISL:MHPA:1,2010-12-06T23:00:00Z,30.6671,-87.9365,1.783,0.87,1111122 
DISL,ioos:station:DISL:MHPA:1,2010-12-06T23:30:00Z,30.6671,-87.9365,2.049,0.88,1111122 
DISL,ioos:station:DISL:MHPA:1,2010-12-07T00:00:00Z,30.6671,-87.9365,2.273,0.89,1111122 
DISL,ioos:station:DISL:MHPA:1,2010-12-07T00:30:00Z,30.6671,-87.9365,2.448,0.9,1111122 
DISL,ioos:station:DISL:MHPA:1,2010-12-07T01:00:00Z,30.6671,-87.9365,2.592,0.92,1111122 
DISL,ioos:station:DISL:MHPA:1,2010-12-07T01:30:00Z,30.6671,-87.9365,2.742,0.94,1111122 
DISL,ioos:station:DISL:MHPA:1,2010-12-07T02:00:00Z,30.6671,-87.9365,2.825,0.96,1111122 
DISL,ioos:station:DISL:MHPA:1,2010-12-07T02:30:00Z,30.6671,-87.9365,2.916,0.95,1111122 
DISL,ioos:station:DISL:MHPA:1,2010-12-07T03:00:00Z,30.6671,-87.9365,2.97,0.89,1111122 
DISL,ioos:station:DISL:MHPA:1,2010-12-07T03:30:00Z,30.6671,-87.9365,3.052,0.88,1111122 
DISL,ioos:station:DISL:MHPA:1,2010-12-07T04:00:00Z,30.6671,-87.9365,3.058,0.88,1111122 
DISL,ioos:station:DISL:MHPA:1,2010-12-07T04:30:00Z,30.6671,-87.9365,3.008,0.86,1111122 
DISL,ioos:station:DISL:MHPA:1,2010-12-07T05:00:00Z,30.6671,-87.9365,3.024,0.89,1111122 
DISL,ioos:station:DISL:MHPA:1,2010-12-07T05:30:00Z,30.6671,-87.9365,3.012,0.92,1111122 
DISL,ioos:station:DISL:MHPA:1,2010-12-07T06:00:00Z,30.6671,-87.9365,3.009,0.89,1111122 
DISL,ioos:station:DISL:MHPA:1,2010-12-07T06:30:00Z,30.6671,-87.9365,2.929,0.82,1111122 
DISL,ioos:station:DISL:MHPA:1,2010-12-07T07:00:00Z,30.6671,-87.9365,2.876,0.88,1111122 
DISL,ioos:station:DISL:MHPA:1,2010-12-07T07:30:00Z,30.6671,-87.9365,2.883,0.8,1111122 
DISL,ioos:station:DISL:MHPA:1,2010-12-07T08:00:00Z,30.6671,-87.9365,2.818,0.82,1111122 
DISL,ioos:station:DISL:MHPA:1,2010-12-07T08:30:00Z,30.6671,-87.9365,2.721,0.78,1111122 
DISL,ioos:station:DISL:MHPA:1,2010-12-07T09:00:00Z,30.6671,-87.9365,2.644,0.71,1111122 
DISL,ioos:station:DISL:MHPA:1,2010-12-07T09:30:00Z,30.6671,-87.9365,2.574,0.73,1111122 
DISL,ioos:station:DISL:MHPA:1,2010-12-07T10:00:00Z,30.6671,-87.9365,2.502,0.7,1111122 
DISL,ioos:station:DISL:MHPA:1,2010-12-07T10:30:00Z,30.6671,-87.9365,2.409,0.69,1111122 
DISL,ioos:station:DISL:MHPA:1,2010-12-07T11:00:00Z,30.6671,-87.9365,2.315,0.64,1111122 
DISL,ioos:station:DISL:MHPA:1,2010-12-07T11:30:00Z,30.6671,-87.9365,2.223,0.66,1111122 
DISL,ioos:station:DISL:MHPA:1,2010-12-07T12:00:00Z,30.6671,-87.9365,2.114,0.69,1111122 
DISL,ioos:station:DISL:MHPA:1,2010-12-07T12:30:00Z,30.6671,-87.9365,2.006,0.68,1111122 
DISL,ioos:station:DISL:MHPA:1,2010-12-07T13:00:00Z,30.6671,-87.9365,1.921,0.91,1111122 
DISL,ioos:station:DISL:MHPA:1,2010-12-07T13:30:00Z,30.6671,-87.9365,1.861,0.62,1111122 
DISL,ioos:station:DISL:MHPA:1,2010-12-07T14:00:00Z,30.6671,-87.9365,1.812,0.66,1111122 
DISL,ioos:station:DISL:MHPA:1,2010-12-07T14:30:00Z,30.6671,-87.9365,1.773,0.77,1111122 
DISL,ioos:station:DISL:MHPA:1,2010-12-07T15:00:00Z,30.6671,-87.9365,1.728,0.72,1111122 
DISL,ioos:station:DISL:MHPA:1,2010-12-07T15:30:00Z,30.6671,-87.9365,1.682,0.69,1111122 